Theta_e
291 288 287 288 289 288 287 285 285 287 290 289 289 289 287 287 286 285 285 285 286 286 288 288 288 288 289 290 291 292 294 295 297 297 297 294 291 291 289 289 290 290 291 294
287 284 291 290 289 288 286 284 284 287 289 289 288 287 286 286 285 285 285 285 285 285 286 286 286 286 286 287 288 289 290 291 293 293 292 292 289 287 288 288 288 288 289 289
286 289 290 290 287 286 284 284 284 286 287 287 285 285 283 284 285 285 286 286 285 285 284 284 284 284 284 284 285 286 287 288 288 290 289 288 287 287 286 286 286 287 288 288
287 290 290 287 287 287 283 288 287 286 285 282 285 280 283 283 283 284 284 284 284 284 284 283 283 283 283 283 284 285 285 286 286 287 286 285 283 282 283 284 286 286 287 286
289 288 287 287 288 289 287 288 287 286 284 282 282 280 282 282 281 282 283 283 283 284 283 282 282 283 283 283 283 284 285 285 285 285 285 284 283 284 284 284 285 285 286 286
290 290 290 290 289 290 288 287 285 283 281 277 282 282 282 280 283 283 283 283 284 283 283 282 283 282 282 282 283 283 284 284 284 284 284 284 283 283 284 284 284 284 284 285
286 287 288 289 286 287 286 284 279 277 276 278 280 279 283 285 284 285 284 284 284 283 282 282 281 281 281 281 282 283 283 283 284 284 284 284 283 283 283 283 283 283 283 283
283 281 287 288 287 285 284 284 279 273 274 277 280 278 284 284 284 286 286 285 284 282 282 281 281 281 281 281 281 282 283 282 283 284 284 284 284 284 284 284 283 283 283 283
282 283 286 286 287 288 284 282 284 277 276 274 280 282 284 283 282 284 284 283 282 282 282 282 282 281 281 281 281 282 282 282 283 283 283 283 283 283 283 283 283 283 283 283
287 283 285 285 287 286 285 287 281 279 271 269 277 279 282 280 281 281 282 282 282 283 282 282 282 281 281 281 282 282 282 282 282 282 282 282 282 282 282 282 282 282 282 281
288 287 283 285 283 283 283 283 282 282 278 274 271 277 283 284 284 281 283 284 283 282 282 282 282 282 282 282 282 282 282 281 281 282 282 282 282 281 281 281 281 281 281 280
290 286 279 282 284 285 284 284 283 279 276 276 276 279 284 285 284 284 283 284 284 284 283 282 282 281 281 281 281 281 281 281 282 282 282 281 281 281 281 280 280 280 279 279
290 285 279 279 282 283 283 283 284 282 280 275 276 279 284 283 283 283 283 284 284 282 281 281 281 281 281 281 280 280 280 281 281 281 281 280 280 280 279 279 279 278 277 277
295 286 284 283 282 283 281 283 283 284 275 281 281 284 282 283 283 282 283 283 282 282 282 281 281 281 281 280 280 279 279 280 280 280 279 279 279 278 277 277 277 276 275 274
291 285 285 281 282 283 282 282 282 282 285 283 285 284 284 285 285 285 285 283 281 281 281 281 281 281 281 280 279 279 278 278 278 278 278 277 277 276 276 274 274 273 273 273
287 285 283 280 281 282 280 282 282 284 285 284 283 282 286 287 284 284 284 283 282 282 282 282 282 282 281 280 278 279 277 278 278 277 276 276 275 274 273 272 272 271 271 270
285 282 282 283 278 280 279 281 281 281 282 284 280 286 283 282 283 284 284 283 284 284 282 280 281 281 281 280 280 278 277 277 276 275 274 274 272 271 270 270 270 269 268 268
283 282 282 270 275 272 278 275 279 283 284 281 278 277 282 283 282 282 283 283 282 282 281 280 280 280 280 279 278 277 276 275 274 272 271 271 270 268 268 268 267 267 267 266
281 282 275 273 274 276 276 274 277 278 277 281 283 280 277 277 277 278 279 280 281 280 280 279 279 278 277 277 277 275 274 274 272 271 270 269 267 266 266 264 265 265 265 264
281 282 282 272 272 271 277 273 275 278 272 275 282 282 276 276 272 277 278 278 279 278 278 278 278 277 277 275 275 274 272 270 269 270 269 268 267 263 262 263 263 264 262 263
275 275 278 276 274 275 276 275 276 271 275 274 274 275 275 274 277 277 277 277 278 278 278 278 277 277 276 273 272 271 270 269 269 268 267 266 264 262 261 261 262 261 260 262
275 274 273 273 273 271 274 274 275 278 275 274 274 276 276 276 277 277 277 277 277 277 277 277 275 274 272 272 271 269 268 268 266 265 265 262 259 260 261 255 258 258 258 258
273 277 274 276 276 275 277 278 279 279 277 276 276 277 277 277 276 277 276 276 276 275 276 274 273 271 269 269 269 268 267 266 264 261 257 256 257 259 259 256 258 258 258 258
272 273 272 274 274 275 277 278 279 279 278 278 278 277 277 276 276 276 275 275 274 274 274 271 270 269 267 266 267 266 265 264 258 256 257 258 257 258 258 260 260 258 258 258
274 274 270 270 273 275 277 278 279 279 278 277 276 277 277 276 274 276 275 274 274 274 271 271 271 270 268 265 264 262 262 260 258 257 258 258 258 256 258 259 259 260 261 262
273 272 271 269 276 276 277 279 279 278 278 277 277 274 275 276 276 275 274 275 274 272 270 269 269 268 265 264 262 259 258 258 257 258 258 258 258 258 259 258 258 263 266 268
Wind_Speed
1 5 10 13 10 4 6 5 5 3 2 1 6 5 3 4 6 6 6 6 6 8 7 8 10 11 11 13 14 14 12 11 6 5 6 8 9 8 11 11 14 14 13 13
4 8 9 5 5 5 4 5 6 4 3 4 4 6 2 3 2 3 5 5 5 4 7 9 10 10 11 10 11 13 13 13 11 7 6 6 8 9 8 9 13 13 13 14
9 4 10 8 5 6 5 7 5 7 1 2 1 6 3 2 4 4 3 3 4 5 5 6 9 10 9 11 10 11 12 12 10 9 8 7 7 7 8 9 10 12 13 13
6 3 6 5 5 7 6 9 7 5 4 5 2 6 5 5 5 4 5 4 4 4 3 4 5 6 7 7 7 11 11 12 10 10 12 14 11 11 6 8 7 9 12 13
7 8 5 5 8 7 6 6 7 4 4 2 3 1 5 5 7 7 8 7 6 5 5 4 4 4 5 6 8 8 11 12 11 11 13 11 13 8 7 7 9 10 9 11
4 1 6 8 2 6 9 7 6 5 3 1 6 6 4 7 7 9 7 9 10 8 6 5 3 3 5 5 6 7 11 11 10 11 11 13 13 9 8 8 7 6 6 7
2 4 3 4 7 3 1 6 2 2 1 6 0 2 8 6 6 15 20 15 11 8 7 6 5 5 4 5 5 6 9 11 9 10 11 11 11 11 11 8 6 7 6 5
8 4 11 7 7 10 8 7 7 8 5 3 1 7 7 2 1 3 12 14 11 10 9 8 8 6 6 6 5 6 8 9 7 9 9 8 9 6 6 7 6 6 5 5
7 5 1 2 4 6 6 6 3 8 3 3 5 5 2 1 1 6 13 12 13 12 11 11 7 6 6 6 6 7 7 6 6 6 6 7 7 8 7 7 5 4 3 5
7 4 1 3 3 3 5 7 4 3 2 5 5 5 7 7 11 7 12 17 15 13 11 9 8 8 6 5 5 6 6 7 6 6 4 6 6 6 6 5 5 4 4 5
6 4 2 4 7 11 4 3 4 5 4 6 2 6 6 8 12 18 16 16 16 14 13 12 10 8 8 6 6 6 6 6 5 5 5 4 4 4 4 5 5 6 6 7
9 5 4 7 2 2 3 8 9 7 6 3 3 8 3 2 10 14 15 16 13 13 14 12 11 10 9 9 8 8 7 6 5 5 5 5 4 4 6 6 7 8 9 9
13 5 2 4 3 2 6 6 4 5 4 9 7 7 1 2 6 9 13 14 14 12 11 10 10 11 12 11 8 7 6 6 5 5 5 4 5 5 6 6 6 6 7 8
10 6 11 14 7 9 7 8 7 8 4 7 14 11 6 7 9 10 10 11 12 13 15 13 13 13 11 9 9 6 6 5 5 5 5 5 5 5 4 4 4 4 5 6
4 9 8 2 4 5 6 8 12 14 20 12 14 15 9 13 13 13 13 9 11 13 15 17 15 12 11 9 7 6 6 5 5 6 6 5 5 4 4 3 3 4 5 6
2 2 4 4 3 2 4 6 11 17 14 16 8 16 6 7 6 7 10 11 13 16 18 14 13 14 12 11 10 8 6 6 5 6 6 6 5 3 3 3 4 5 5 6
9 7 5 7 4 6 5 12 16 6 7 12 14 14 6 5 8 9 8 11 15 15 11 13 15 15 12 11 9 9 8 7 7 6 5 5 4 2 2 3 3 5 6 7
6 6 2 4 3 6 4 2 3 14 7 6 2 5 8 5 2 3 6 10 8 9 10 9 9 10 9 7 7 8 8 7 7 6 5 4 3 2 3 3 5 6 6 7
4 4 3 5 5 6 2 6 9 9 9 10 11 6 4 4 3 4 5 5 8 8 6 8 8 7 7 8 8 9 8 7 6 6 5 4 3 2 3 3 5 5 6 7
1 3 5 3 5 10 5 2 2 4 5 8 13 10 8 7 3 7 7 6 6 7 6 8 8 6 9 7 9 9 8 7 6 6 6 4 3 3 1 3 5 3 6 8
4 1 12 9 6 6 5 5 3 7 8 4 7 6 9 7 6 3 8 5 5 6 9 8 8 9 8 9 9 8 8 7 6 6 5 4 3 0 2 2 3 4 6 7
7 9 5 1 1 8 7 5 10 7 2 5 6 6 9 5 7 4 6 7 9 9 8 8 7 6 7 9 9 8 8 7 7 5 5 3 1 1 2 2 3 4 4 5
3 7 7 10 6 3 11 3 6 5 6 6 6 7 9 10 8 8 7 7 8 10 7 5 8 7 5 7 7 9 7 8 7 5 4 2 1 2 2 3 4 4 3 4
4 2 2 4 2 4 13 4 2 5 5 5 5 8 9 9 9 7 6 7 7 8 9 6 8 9 9 7 6 5 9 7 7 5 4 2 2 3 3 3 4 3 4 5
3 8 6 1 3 3 7 8 7 7 3 3 3 7 9 5 3 6 7 7 8 10 6 8 11 9 10 10 7 6 8 8 6 5 4 3 3 3 3 4 4 5 5 7
6 7 5 6 8 6 5 11 9 9 10 10 9 4 4 8 9 7 7 8 7 9 6 7 8 7 9 11 9 7 7 7 7 5 4 3 2 2 2 3 5 10 13 14
Wind_Direction
112 130 205 193 195 139 141 176 205 244 251 152 226 253 38 85 71 84 78 70 63 48 11 25 26 22 22 28 36 39 55 43 64 65 78 70 68 54 51 47 42 43 42 42
66 227 207 127 155 165 152 164 234 281 232 162 260 252 104 52 65 120 123 102 83 75 38 27 28 34 38 43 44 47 52 55 59 67 75 78 85 66 69 60 52 46 49 48
170 218 142 151 155 170 199 193 192 211 42 192 309 267 193 62 109 110 106 115 88 81 68 34 31 24 29 41 39 59 61 58 54 75 100 96 86 80 64 47 49 38 45 47
227 227 161 165 194 159 200 201 176 164 126 225 155 272 235 180 165 174 175 155 141 133 102 72 52 54 44 37 45 62 63 69 63 76 84 82 86 89 74 68 64 52 44 48
227 164 160 181 210 165 229 133 156 141 155 114 231 207 252 129 212 197 201 186 182 168 150 123 97 69 49 38 47 59 74 73 72 79 88 92 91 90 87 76 70 57 49 47
213 159 158 191 124 157 150 85 54 58 97 258 229 190 241 196 197 176 191 196 189 180 170 160 140 112 85 60 62 74 86 74 72 78 83 93 99 100 90 73 68 54 50 42
168 217 181 137 93 65 106 106 72 1 334 226 56 174 247 204 184 182 182 190 186 176 173 178 171 152 127 108 100 95 98 93 88 88 90 93 94 92 87 80 71 63 48 39
169 240 169 188 177 174 185 169 164 201 196 232 20 230 257 78 36 179 181 179 169 179 184 185 184 173 160 147 130 121 114 112 110 111 108 106 104 100 91 86 79 66 59 49
163 265 92 102 138 142 188 205 154 103 45 43 217 278 271 175 193 173 173 170 181 188 188 190 178 180 175 164 156 141 125 120 113 113 113 103 100 97 99 91 84 70 61 38
214 123 252 163 105 40 162 157 89 358 171 254 270 259 233 212 208 184 188 191 189 193 189 178 182 183 182 175 169 151 144 148 148 133 124 115 112 107 109 103 88 75 57 30
157 131 203 128 207 173 149 172 71 120 148 181 264 253 216 206 185 189 198 193 190 192 189 187 187 182 179 180 177 159 168 152 147 135 127 121 123 111 110 85 63 42 37 21
194 130 167 206 304 284 208 179 156 148 219 247 156 254 30 251 182 180 192 196 194 191 190 183 179 179 178 187 186 180 172 161 162 154 149 140 126 82 60 45 33 24 15 10
175 181 106 358 336 319 221 204 155 103 88 189 166 258 63 171 162 193 187 194 192 185 175 174 178 188 189 192 184 182 175 178 163 163 142 100 79 70 54 42 27 19 3 352
151 151 189 216 188 139 196 197 176 167 150 196 230 242 204 208 187 199 197 190 187 186 185 184 192 195 192 186 183 178 190 182 166 139 116 109 95 83 71 58 39 6 349 348
125 206 201 206 138 143 190 182 173 198 222 206 245 223 194 197 202 201 200 181 171 187 188 194 193 188 191 183 179 178 190 170 164 142 129 121 111 97 86 61 19 356 357 354
134 214 148 154 109 148 235 216 180 211 225 240 254 253 177 206 110 158 190 176 190 200 203 195 187 185 185 186 189 184 179 164 148 143 135 128 113 95 62 37 3 351 344 334
166 152 162 213 137 130 256 218 205 175 196 202 220 242 162 193 208 208 193 187 203 205 183 179 189 186 182 185 178 186 163 146 152 136 127 119 114 114 87 24 358 345 336 331
149 143 173 136 168 203 224 105 162 206 208 178 185 198 187 191 189 202 188 195 189 175 180 184 175 174 174 162 156 133 143 153 139 129 132 135 128 85 41 12 348 331 325 319
352 139 144 164 207 340 260 203 163 165 245 194 210 206 196 120 89 279 205 190 196 185 174 183 175 161 142 145 141 139 148 141 138 150 153 151 121 92 33 349 323 314 310 311
316 6 201 135 182 203 257 284 174 108 280 206 192 212 159 134 145 238 190 169 179 171 159 155 139 120 135 148 149 143 147 149 165 162 158 150 140 117 357 309 308 306 305 306
122 319 221 204 212 271 209 177 164 127 243 167 174 158 155 186 201 200 130 155 152 158 156 135 142 160 165 144 139 149 153 180 154 139 146 142 114 79 286 304 314 301 299 299
163 166 197 73 259 264 158 61 163 204 6 159 188 188 182 153 166 155 177 173 165 161 148 158 153 159 145 147 150 157 177 149 143 147 144 140 133 332 335 292 294 287 283 287
237 193 175 187 205 283 201 155 197 163 148 195 175 183 170 177 189 178 194 180 179 172 167 164 162 148 148 159 162 164 165 151 146 139 152 154 351 325 283 270 285 294 278 289
250 172 167 95 217 236 210 231 259 197 201 170 187 169 166 180 196 193 170 185 179 177 185 163 151 171 178 172 166 153 152 143 140 156 169 187 232 279 274 283 276 267 276 282
186 139 153 254 262 308 258 240 220 223 179 150 156 175 198 185 198 190 193 197 196 187 161 167 186 188 185 165 164 156 149 144 154 161 181 210 220 245 277 275 270 276 258 256
190 162 160 205 199 182 224 216 203 203 210 200 194 206 222 184 209 192 215 205 189 185 164 182 192 176 170 169 165 167 160 159 155 169 186 199 213 240 280 299 303 301 298 296